Terminal Aerodrome Forecast
Issued by NWS

Home | Current Version | Previous Version | Text Only | Print | Product List | Glossary On
Versions: 1 2 3 4 5 6 7 8 9 10 11 12 13 14 15 16 17
000
FTUS41 KBTV 290520
TAFRUT
TAF
KRUT 290520Z 2906/3006 21004KT P6SM SCT060
     FM291300 31005KT P6SM BKN070
     FM291500 32010G18KT P6SM BKN150
     FM292300 34005KT P6SM SKC
      AMD LTD TO CLD VIS AND WIND=

USA.gov is the U.S. government's official web portal to all federal, state and local government web resources and services.